Date,TemperatureHighF,TemperatureAvgF,TemperatureLowF,DewpointHighF,DewpointAvgF,DewpointLowF,HumidityHigh,HumidityAvg,HumidityLow,PressureMaxIn,PressureMinIn,WindSpeedMaxMPH,WindSpeedAvgMPH,GustSpeedMaxMPH,PrecipitationSumIn
2013-10-1,92.9,79.9,74.7,76.2,73.6,70.9,95,82,53,29.95,29.85,5,1,9,0.00
2013-10-2,80.8,75.9,74.2,77.4,73.6,71.8,95,93,82,29.96,29.90,1,0,2,0.03
2013-10-3,93.8,82.5,72.9,77.6,74.2,70.8,96,78,54,29.96,29.86,4,1,7,0.00
2013-10-4,96.0,83.7,72.1,75.9,74.2,70.3,95,75,49,29.94,29.87,4,1,7,0.00
2013-10-5,92.2,82.0,62.9,77.2,69.5,51.8,96,68,50,30.02,29.84,5,2,9,0.00
2013-10-6,78.3,67.8,56.4,56.7,50.2,44.9,90,55,32,30.12,29.99,6,2,8,0.19
2013-10-7,81.2,70.1,54.2,58.4,51.9,45.2,93,57,29,30.15,30.03,4,1,7,0.00
2013-10-8,88.3,77.9,54.9,57.0,53.7,50.2,93,47,28,30.10,29.99,2,1,4,0.00
2013-10-9,88.2,69.2,63.6,64.3,62.2,61.4,94,80,44,30.05,29.99,2,0,5,0.00
2013-10-10,92.1,78.5,69.1,68.7,67.0,64.6,91,70,43,30.07,29.90,3,1,7,0.00
2013-10-11,91.3,81.2,75.1,75.3,74.0,72.8,95,80,57,29.97,29.88,5,1,8,0.00
2013-10-12,90.6,75.7,72.9,80.2,73.1,70.4,96,92,69,30.06,29.93,4,0,5,0.75
2013-10-13,75.7,73.6,72.0,74.2,71.9,70.3,96,94,93,30.15,30.03,2,0,4,0.29
2013-10-14,87.8,77.7,71.8,75.8,71.3,70.0,96,82,59,30.09,29.95,4,1,8,0.00
2013-10-15,90.5,79.9,69.2,74.2,70.9,66.8,93,76,56,29.99,29.88,4,1,9,0.00
2013-10-16,72.2,64.8,61.3,66.6,61.9,58.7,94,90,81,30.03,29.94,5,2,6,0.03
2013-10-17,79.1,67.7,60.2,59.3,56.9,54.8,91,70,49,30.08,29.95,4,1,7,0.01
2013-10-18,76.0,68.3,63.1,65.7,62.4,60.4,94,82,63,30.00,29.89,5,1,7,0.01
2013-10-19,70.4,63.0,52.4,63.1,54.2,44.5,95,75,40,30.13,29.96,6,2,11,0.91
2013-10-20,81.4,69.6,51.3,61.7,56.6,46.3,87,66,38,30.09,29.95,2,0,5,0.00
2013-10-21,82.1,70.7,63.0,68.8,64.4,59.9,93,81,62,30.00,29.91,3,0,5,0.00
2013-10-22,75.6,66.6,57.5,64.7,59.0,50.6,93,79,45,30.11,29.96,5,2,8,0.00
2013-10-23,87.2,66.2,52.4,60.8,53.4,49.9,94,69,31,30.18,30.08,2,0,4,0.00
2013-10-24,88.3,69.0,55.2,60.7,56.4,53.1,94,68,31,30.24,30.12,2,0,3,0.00
2013-10-25,81.5,65.5,57.7,61.6,57.7,54.1,94,78,49,30.35,30.18,3,1,7,0.00
2013-10-26,84.9,75.8,59.5,67.1,63.9,55.0,90,68,51,30.25,30.11,4,2,7,0.00
2013-10-27,77.2,67.1,61.3,69.2,64.1,58.8,96,90,76,30.12,30.01,10,0,14,1.08
2013-10-28,86.9,73.0,63.5,74.2,67.4,61.7,96,84,61,30.12,30.02,6,1,9,0.00
2013-10-29,86.3,75.8,67.8,72.8,69.0,66.0,95,81,61,30.12,30.03,5,2,8,0.00
2013-10-30,83.2,77.5,73.0,77.7,73.9,70.2,94,89,79,30.07,29.85,4,2,0,0.47
2013-10-31,78.7,71.1,59.0,75.4,68.5,56.9,96,91,81,29.91,29.78,6,2,9,2.88